Satellite: NOAA-19
Catalog number: 33591
Epoch time:      12054.36555991
Element set:     274
Inclination:      098.8548 deg
RA of node:       355.6384 deg
Eccentricity:    0.0014163
Arg of perigee:   349.7124 deg
Mean anomaly:     010.3752 deg
Mean motion:   14.11296945 rev/day
Decay rate:        9.7e-07 rev/day^2
Epoch rev:           15681
Checksum:              328

/EX
SB KEPS @ AMSAT  $ORB12054.M
Orbital Elements  12054.MISC

HR AMSAT ORBITAL ELEMENTS FOR MANNED AND MISCELLANEOUS SATELLITES
FROM WA5QGD FORT WORTH,TX February 23, 2012
Send SUBSCRIBE KEPS/UNSUBSCRIBE KEPS to majordomo@amsat.org only
BID: ORB12054.M
TO ALL RADIO AMATEURS BT

Satellite: HUBBLE
Catalog number: 20580
Epoch time:      12054.06756340
Element set:     948
Inclination:      028.4682 deg
RA of node:       176.7224 deg
Eccentricity:    0.0003046
Arg of perigee:   274.1397 deg
Mean anomaly:     085.8949 deg
Mean motion:   15.02204207 rev/day
Decay rate:      1.552e-05 rev/day^2
Epoch rev:           99740
Checksum:              300

Satellite: ISS
Catalog number: 25544
Epoch time:      12054.95299164
Element set:      69
Inclination:      051.6442 deg
RA of node:       334.9734 deg
Eccentricity:    0.0020665
Arg of perigee:   078.2958 deg
Mean anomaly:     019.4320 deg
Mean motion:   15.59228772 rev/day
Decay rate:     1.9173e-04 rev/day^2
Epoch rev:           76020
Checksum:              315

Satellite: CO-58
Catalog number: 28895
Epoch time:      12053.85353521
Element set:    0107
Inclination:      097.9338 deg
RA of node:       285.0921 deg
Eccentricity:    0.0018235
Arg of perigee:   150.4245 deg
Mean anomaly:     209.8028 deg
Mean motion:   14.60490559 rev/day
Decay rate:       5.78e-06 rev/day^2
Epoch rev:           33682
Checksum:              326

Satellite: FALCON
Catalog number: 30776
Epoch time:      12053.92233472
Element set:    0304
Inclination:      035.4331 deg
RA of node:       260.4072 deg
Eccentricity:    0.0001745
Arg of perigee:   061.7876 deg
Mean anomaly:     298.3017 deg
Mean motion:   15.06663449 rev/day
Decay rate:      3.345e-05 rev/day^2
Epoch rev:           27285
Checksum:              286

Satellite: MAST
Catalog number: 31126
Epoch time:      12054.58263514
Element set:     391
Inclination:      097.8794 deg
RA of node:       072.3727 deg
Eccentricity:    0.0094973
Arg of perigee:   107.5255 deg
Mean anomaly:     253.6332 deg
Mean motion:   14.54038669 rev/day
Decay rate:       3.50e-06 rev/day^2
Epoch rev:           25761
Checksum:              309

Satellite: CAPE1
Catalog number: 31130
Epoch time:      12053.76332007
Element set:     402
Inclination:      097.8879 deg
RA of node:       068.0628 deg
Eccentricity:    0.0102772
Arg of perigee:   122.2903 deg
Mean anomaly:     238.8306 deg
Mean motion:   14.52776271 rev/day
Decay rate:       6.20e-06 rev/day^2
Epoch rev:           25701
Checksum:              274

Satellite: COMPASS
Catalog number: 32787
Epoch time:      12053.68438507
Element set:    0231
Inclination:      097.8132 deg
RA of node:       117.5382 deg
Eccentricity:    0.0016389
Arg of perigee:   079.6177 deg
Mean anomaly:     280.6881 deg
Mean motion:   14.83535127 rev/day
Decay rate:      2.172e-05 rev/day^2
Epoch rev:           20668
Checksum:              320

Satellite: AAUSAT2
Catalog number: 32788
Epoch time:      12053.61014188
Element set:    0223
Inclination:      097.8161 deg
RA of node:       117.7884 deg
Eccentricity:    0.0016290
Arg of perigee:   080.8331 deg
Mean anomaly:     279.4722 deg
Mean motion:   14.83815616 rev/day
Decay rate:      2.152e-05 rev/day^2
Epoch rev:           20669
Checksum:              303

Satellite: DO-64
Catalog number: 32789
Epoch time:      12053.82840591
Element set:    0238
Inclination:      097.8267 deg
RA of node:       119.6197 deg
Eccentricity:    0.0015881
Arg of perigee:   078.1035 deg
Mean anomaly:     282.1933 deg
Mean motion:   14.84982575 rev/day
Decay rate:      3.369e-05 rev/day^2
Epoch rev:           20675
Checksum:              351

Satellite: CO-66
Catalog number: 32791
Epoch time:      12053.83422156
Element set:    0225
Inclination:      097.8173 deg
RA of node:       117.5118 deg
Eccentricity:    0.0017002
Arg of perigee:   078.9051 deg
Mean anomaly:     281.4014 deg
Mean motion:   14.83034006 rev/day
Decay rate:      1.340e-05 rev/day^2
Epoch rev:           20664
Checksum:              268

Satellite: RS-30
Catalog number: 32953
Epoch time:      12054.83554269
Element set:     548
Inclination:      082.5044 deg
RA of node:       006.2416 deg
Eccentricity:    0.0017926
Arg of perigee:   194.4922 deg
Mean anomaly:     165.5651 deg
Mean motion:   12.43021174 rev/day
Decay rate:        1.0e-07 rev/day^2
Epoch rev:           17035
Checksum:              276

Satellite: TACSAT-3
Catalog number: 35001
Epoch time:      12053.48608741
Element set:    0886
Inclination:      040.4479 deg
RA of node:       071.9357 deg
Eccentricity:    0.0005712
Arg of perigee:   164.3859 deg
Mean anomaly:     195.7146 deg
Mean motion:   15.75037288 rev/day
Decay rate:    1.08243e-03 rev/day^2
Epoch rev:           15613
Checksum:              314

